KOZAKOV Weather Reports


time (UTC)temp
F
wind
direction
speed
knots
gust
knots
rain 1hr
in
rain 24hr
in
rain mn
in
humidity
%
barometer
mb
20260503055016 55 133 3.5 3.5 0.00 0.00 0.00 39
20260503054518 55 124 1.7 3.5 0.00 0.00 0.00 39
20260503054017 55 135 3.5 6.1 0.00 0.00 0.00 40
20260503053518 55 126 3.5 3.5 0.00 0.00 0.00 39
20260503053016 55 135 3.5 6.1 0.00 0.00 0.00 39
20260503052517 55 128 3.5 6.1 0.00 0.00 0.00 39
20260503052012 55 141 3.5 3.5 0.00 0.00 0.00 39
20260503051518 55 130 3.5 6.1 0.00 0.00 0.00 40
20260503051018 54 115 3.5 3.5 0.00 0.00 0.00 41
20260503050518 54 105 3.5 6.1 0.00 0.00 0.00 41
20260503050017 54 108 3.5 6.1 0.00 0.00 0.00 42
20260503045517 54 104 3.5 6.1 0.00 0.00 0.00 41
20260503045017 54 106 6.1 6.1 0.00 0.00 0.00 41
20260503044518 54 108 6.1 6.1 0.00 0.00 0.00 41
20260503044017 54 109 6.1 6.1 0.00 0.00 0.00 41
20260503043517 54 108 6.1 7.8 0.00 0.00 0.00 40
20260503043017 54 113 6.1 6.1 0.00 0.00 0.00 40
20260503042510 54 114 6.1 6.1 0.00 0.00 0.00 40
20260503042019 54 113 6.1 6.1 0.00 0.00 0.00 40
20260503041518 54 113 3.5 6.1 0.00 0.00 0.00 39
20260503041017 54 131 3.5 6.1 0.00 0.00 0.00 39
20260503040517 54 123 6.1 6.1 0.00 0.00 0.00 40
20260503040017 54 137 6.1 6.1 0.00 0.00 0.00 40
20260503035516 54 117 6.1 7.8 0.00 0.00 0.00 40
20260503035017 54 113 6.1 7.8 0.00 0.00 0.00 40
20260503034517 54 122 6.1 6.1 0.00 0.00 0.00 40
20260503034017 54 121 6.1 6.1 0.00 0.00 0.00 39
20260503033516 54 119 6.1 6.1 0.00 0.00 0.00 39
20260503033011 54 120 6.1 6.1 0.00 0.00 0.00 39
20260503032517 54 125 6.1 6.1 0.00 0.00 0.00 39
20260503032018 54 129 3.5 6.1 0.00 0.00 0.00 40
20260503031518 54 116 6.1 7.8 0.00 0.00 0.00 39
20260503031017 54 129 3.5 6.1 0.00 0.00 0.00 39
20260503030517 54 132 6.1 6.1 0.00 0.00 0.00 38
20260503030017 54 142 3.5 6.1 0.00 0.00 0.00 40
20260503025518 54 163 1.7 6.1 0.00 0.00 0.00 40
20260503025017 52 118 6.1 7.8 0.00 0.00 0.00 41
20260503024517 54 141 3.5 7.8 0.00 0.00 0.00 40
20260503024017 54 119 6.1 6.1 0.00 0.00 0.00 38
20260503023517 54 159 1.7 3.5 0.00 0.00 0.00 38
20260503023017 55 145 6.1 11.3 0.00 0.00 0.00 38
20260503022516 55 155 6.1 9.6 0.00 0.00 0.00 38
20260503022018 55 144 6.1 6.1 0.00 0.00 0.00 39
20260503021517 54 151 3.5 7.8 0.00 0.00 0.00 39
20260503021018 54 144 6.1 7.8 0.00 0.00 0.00 39
20260503020517 55 142 3.5 3.5 0.00 0.00 0.00 38
20260503020018 55 154 3.5 3.5 0.00 0.00 0.00 38
20260503015517 55 143 3.5 7.8 0.00 0.00 0.00 38
20260503015018 55 145 3.5 6.1 0.00 0.00 0.00 38
20260503014517 55 151 3.5 3.5 0.00 0.00 0.00 38
20260503014017 55 167 6.1 7.8 0.00 0.00 0.00 37
20260503013517 55 161 6.1 9.6 0.00 0.00 0.00 37
20260503013017 55 162 6.1 9.6 0.00 0.00 0.00 38
20260503012510 55 154 6.1 9.6 0.00 0.00 0.00 39
20260503012018 54 130 6.1 7.8 0.00 0.00 0.00 41
20260503011518 54 127 3.5 6.1 0.00 0.00 0.00 40
20260503011011 54 127 3.5 6.1 0.00 0.00 0.00 39
20260503010517 54 145 1.7 3.5 0.00 0.00 0.00 39
20260503010011 54 132 3.5 6.1 0.00 0.00 0.00 39
20260503005517 55 151 6.1 7.8 0.00 0.00 0.00 39
20260503005018 55 140 6.1 6.1 0.00 0.00 0.00 39
20260503004517 55 140 6.1 7.8 0.00 0.00 0.00 39
20260503004016 55 130 3.5 6.1 0.00 0.00 0.00 39
20260503003517 55 123 6.1 6.1 0.00 0.00 0.00 39
20260503003018 55 127 6.1 6.1 0.00 0.00 0.00 39
20260503002516 55 129 3.5 6.1 0.00 0.00 0.00 39
20260503002017 55 119 6.1 6.1 0.00 0.00 0.00 38
20260503001518 55 120 6.1 7.8 0.00 0.00 0.00 38
20260503001018 55 114 6.1 7.8 0.00 0.00 0.00 39
20260503000517 55 117 6.1 7.8 0.00 0.00 0.00 38
20260503000018 55 114 7.8 7.8 0.00 0.00 0.00 39
20260502235517 55 110 7.8 7.8 0.00 0.00 0.00 38
20260502235017 55 109 7.8 9.6 0.00 0.00 0.00 38
20260502234511 55 103 9.6 11.3 0.00 0.00 0.00 37
20260502234017 55 107 9.6 9.6 0.00 0.00 0.00 37
20260502233518 55 104 9.6 11.3 0.00 0.00 0.00 36
20260502233017 57 109 11.3 11.3 0.00 0.00 0.00 36
20260502232516 57 108 11.3 13.9 0.00 0.00 0.00 36
20260502232018 57 104 11.3 13.9 0.00 0.00 0.00 36
20260502231518 57 107 11.3 13.9 0.00 0.00 0.00 35
20260502231016 57 109 13.9 13.9 0.00 0.00 0.00 35
20260502230518 57 107 13.9 13.9 0.00 0.00 0.00 35
20260502230011 57 104 11.3 13.9 0.00 0.00 0.00 34
20260502225516 59 121 11.3 11.3 0.00 0.00 0.00 33
20260502225018 59 129 9.6 11.3 0.00 0.00 0.00 33
20260502224517 59 131 7.8 9.6 0.00 0.00 0.00 33
20260502224010 59 129 7.8 9.6 0.00 0.00 0.00 34
20260502223518 59 132 7.8 9.6 0.00 0.00 0.00 35
20260502223018 59 134 7.8 9.6 0.00 0.00 0.00 35
20260502222517 59 139 7.8 9.6 0.00 0.00 0.00 35
20260502222018 59 140 7.8 7.8 0.00 0.00 0.00 34
20260502221518 59 140 7.8 9.6 0.00 0.00 0.00 33
20260502221017 59 138 6.1 7.8 0.00 0.00 0.00 33
20260502220518 59 151 6.1 7.8 0.00 0.00 0.00 33
20260502220018 59 138 7.8 9.6 0.00 0.00 0.00 34
20260502215517 59 143 7.8 9.6 0.00 0.00 0.00 35
20260502215017 59 135 7.8 9.6 0.00 0.00 0.00 35
20260502214518 59 137 7.8 9.6 0.00 0.00 0.00 36
20260502214016 59 130 7.8 9.6 0.00 0.00 0.00 35
20260502213517 59 128 6.1 7.8 0.00 0.00 0.00 34
20260502213017 59 134 9.6 9.6 0.00 0.00 0.00 33
20260502212517 59 117 9.6 11.3 0.00 0.00 0.00 31
20260502212017 59 125 7.8 9.6 0.00 0.00 0.00 31
20260502211516 59 126 6.1 9.6 0.00 0.00 0.00 31
20260502211018 59 124 7.8 9.6 0.00 0.00 0.00 30
20260502210517 59 124 6.1 7.8 0.00 0.00 0.00 30
20260502210018 59 129 6.1 7.8 0.00 0.00 0.00 29
20260502205517 61 133 6.1 7.8 0.00 0.00 0.00 29
20260502205018 61 132 6.1 7.8 0.00 0.00 0.00 28
20260502204511 61 127 6.1 6.1 0.00 0.00 0.00 28
20260502204017 61 143 3.5 6.1 0.00 0.00 0.00 28
20260502203518 61 140 6.1 7.8 0.00 0.00 0.00 28
20260502203018 61 143 7.8 7.8 0.00 0.00 0.00 28
20260502202516 61 143 6.1 7.8 0.00 0.00 0.00 28
20260502202018 61 133 6.1 6.1 0.00 0.00 0.00 28
20260502201518 61 128 6.1 7.8 0.00 0.00 0.00 28
20260502201016 61 126 6.1 6.1 0.00 0.00 0.00 28
20260502200516 61 124 6.1 7.8 0.00 0.00 0.00 29
20260502200017 61 132 6.1 7.8 0.00 0.00 0.00 29
20260502195517 61 127 6.1 6.1 0.00 0.00 0.00 28
20260502195016 61 133 6.1 6.1 0.00 0.00 0.00 28
20260502194518 61 126 6.1 7.8 0.00 0.00 0.00 27
20260502194017 61 125 7.8 7.8 0.00 0.00 0.00 27
20260502193518 61 122 7.8 7.8 0.00 0.00 0.00 27
20260502193017 61 124 6.1 7.8 0.00 0.00 0.00 27
20260502192518 61 127 6.1 7.8 0.00 0.00 0.00 27
20260502192017 61 131 6.1 6.1 0.00 0.00 0.00 27
20260502191518 61 140 6.1 6.1 0.00 0.00 0.00 27
20260502191017 61 143 6.1 6.1 0.00 0.00 0.00 26
20260502190517 61 144 6.1 6.1 0.00 0.00 0.00 26
20260502190019 61 148 6.1 6.1 0.00 0.00 0.00 26
20260502185509 61 147 6.1 6.1 0.00 0.00 0.00 27
20260502185018 61 151 6.1 6.1 0.00 0.00 0.00 27
20260502184517 61 156 6.1 6.1 0.00 0.00 0.00 27
20260502184016 61 164 3.5 6.1 0.00 0.00 0.00 27
20260502183517 61 164 6.1 6.1 0.00 0.00 0.00 27
20260502182510 61 163 6.1 6.1 0.00 0.00 0.00 27
20260502182018 61 169 6.1 6.1 0.00 0.00 0.00 27
20260502181517 61 173 3.5 6.1 0.00 0.00 0.00 27
20260502181017 61 180 3.5 6.1 0.00 0.00 0.00 26
20260502180517 61 180 3.5 3.5 0.00 0.00 0.00 26
20260502170518 63 176 3.5 6.1 0.00 0.00 0.00 26
20260502164017 64 214 3.5 6.1 0.00 0.00 0.00 26
20260502163517 63 184 1.7 3.5 0.00 0.00 0.00 26
20260502163018 63 177 6.1 6.1 0.00 0.00 0.00 26
20260502162516 63 165 3.5 7.8 0.00 0.00 0.00 26
20260502162017 64 180 3.5 6.1 0.00 0.00 0.00 26
20260502161518 64 215 3.5 6.1 0.00 0.00 0.00 26
20260502161016 64 182 1.7 1.7 0.00 0.00 0.00 26
20260502160518 63 167 3.5 6.1 0.00 0.00 0.00 25
20260502152018 64 225 3.5 7.8 0.00 0.00 0.00 25
20260502151517 64 182 3.5 7.8 0.00 0.00 0.00 24
20260502151017 64 189 3.5 7.8 0.00 0.00 0.00 24
20260502150517 64 207 3.5 6.1 0.00 0.00 0.00 24
20260502130518 63 226 1.7 1.7 0.00 0.00 0.00 27
20260502123517 64 155 3.5 6.1 0.00 0.00 0.00 28
20260502123018 64 215 1.7 3.5 0.00 0.00 0.00 28
20260502122517 64 129 0.0 1.7 0.00 0.00 0.00 28
20260502122020 61 176 3.5 6.1 0.00 0.00 0.00 29
20260502121518 61 155 3.5 3.5 0.00 0.00 0.00 30
20260502121018 61 173 6.1 6.1 0.00 0.00 0.00 30
20260502120518 63 212 3.5 6.1 0.00 0.00 0.00 30
20260502115517 63 213 3.5 6.1 0.00 0.00 0.00 31
20260502115018 61 137 6.1 7.8 0.00 0.00 0.00 32
20260502114518 61 161 6.1 7.8 0.00 0.00 0.00 32
20260502114017 63 212 1.7 6.1 0.00 0.00 0.00 32
20260502113517 63 230 1.7 3.5 0.00 0.00 0.00 32
20260502113018 61 264 1.7 3.5 0.00 0.00 0.00 32
20260502112517 61 182 1.7 3.5 0.00 0.00 0.00 34
20260502112019 61 192 0.0 1.7 0.00 0.00 0.00 33
20260502111517 59 133 7.8 9.6 0.00 0.00 0.00 34
20260502111017 61 216 3.5 6.1 0.00 0.00 0.00 34
20260502110518 61 164 3.5 7.8 0.00 0.00 0.00 34
20260502110018 61 263 3.5 6.1 0.00 0.00 0.00 35
20260502105517 61 200 3.5 6.1 0.00 0.00 0.00 35
20260502105018 59 184 3.5 6.1 0.00 0.00 0.00 35
20260502104517 61 158 3.5 3.5 0.00 0.00 0.00 35
20260502104018 61 158 6.1 7.8 0.00 0.00 0.00 35
20260502103517 61 207 6.1 6.1 0.00 0.00 0.00 35
20260502103018 61 279 1.7 3.5 0.00 0.00 0.00 35
20260502102518 61 186 1.7 3.5 0.00 0.00 0.00 35
20260502102020 61 196 3.5 6.1 0.00 0.00 0.00 34
20260502101518 61 203 1.7 3.5 0.00 0.00 0.00 35
20260502101018 59 165 3.5 6.1 0.00 0.00 0.00 35
20260502100517 61 236 1.7 1.7 0.00 0.00 0.00 35
20260502091517 59 195 3.5 7.8 0.00 0.00 0.00 40
20260502091018 59 201 1.7 3.5 0.00 0.00 0.00 41
20260502090517 59 226 1.7 3.5 0.00 0.00 0.00 41
20260502071517 59 184 0.0 0.0 0.00 0.00 0.00 46
20260502071017 57 186 0.0 1.7 0.00 0.00 0.00 46
20260502070517 57 190 0.0 1.7 0.00 0.00 0.00 45
20260502070017 57 190 0.0 0.0 0.00 0.00 0.00 46
20260502065518 57 190 0.0 1.7 0.00 0.00 0.00 45
20260502065017 55 182 1.7 1.7 0.00 0.00 0.00 45
20260502064517 57 168 1.7 1.7 0.00 0.00 0.00 43
20260502064017 57 168 0.0 1.7 0.00 0.00 0.00 43
20260502063017 57 161 1.7 1.7 0.00 0.00 0.00 43
20260502062021 57 161 0.0 1.7 0.00 0.00 0.00 43
20260502061517 57 161 1.7 1.7 0.00 0.00 0.00 44
20260502061017 57 161 0.0 0.0 0.00 0.00 0.00 44
20260502060017 55 161 0.0 1.7 0.00 0.00 0.00 44